Brownwood, TX

3:33 AM CDT on July 30, 2016 (GMT -0500)
Brownwood Regional

Weather History for KBWD - January, 2014

Change the Weather History Date:

Saturday, January 4, 2014

  Actual Average (KABI) Record (KABI)
Temperature  
Mean Temperature 54 °F 44 °F  
Max Temperature 71 °F 56 °F 79 °F (1921)
Min Temperature 37 °F 33 °F -9 °F (1947)
Degree Days  
Heating Degree Days 11 21  
Month to date heating degree days 84  
Since 1 July heating degree days 1129  
Cooling Degree Days 0 0  
Month to date cooling degree days 0  
Year to date cooling degree days 0  
Growing Degree Days 4 (Base 50)    
Moisture  
Dew Point 39 °F    
Average Humidity 62    
Maximum Humidity 93    
Minimum Humidity 33    
Precipitation  
Precipitation 0.00 in 0.02 in 0.69 in (1932)
Month to date precipitation 0.12  
Year to date precipitation 0.12  
Sea Level Pressure  
Sea Level Pressure 29.86 in    
Wind  
Wind Speed 9 mph (South)    
Max Wind Speed 18 mph    
Max Gust Speed 25 mph    
Visibility 10 miles    
Events      
T = Trace of Precipitation, MM = Missing Value Source: NWS Daily Summary

Daily Weather History Graph

Daily Weather History Graph

Search for Another Location

Airport or City:

Trip Planner

Search our weather history database for the weather conditions in past years. The results will help you decide how hot, cold, wet, or windy it might be!

Date:

Astronomy

Jan. 04, 2014 Rise Set
Actual Time 7:36 AM CST 5:45 PM CST
Civil Twilight 7:09 AM CST 6:12 PM CST
Nautical Twilight 6:39 AM CST 6:42 PM CST
Astronomical Twilight 6:09 AM CST 7:12 PM CST
Moon 9:57 AM CST (1/4) 9:50 PM CST (1/4)
Length of Visible Light 11h 02m
Length of Day
10h 08m
Waxing Crescent, 15% of the Moon is Illuminated
Jan 4
Waxing Crescent
Jan 7
First Quarter
Jan 15
Full
Jan 23
Last Quarter
Jan 30
New

Hourly Weather History & Observations

Time (CST) Temp. Windchill Dew Point Humidity Pressure Visibility Wind Dir Wind Speed Gust Speed Precip Events Conditions
12:15 AM 37.4 °F - 24.8 °F 60% 30.00 in 10.0 mi North - - N/A   Unknown
12:35 AM 37.4 °F - 24.8 °F 60% 30.00 in 10.0 mi North - - N/A   Unknown
12:55 AM 37.4 °F - 24.8 °F 60% 29.99 in 10.0 mi North - - N/A   Unknown
1:15 AM 37.4 °F - 26.6 °F 65% 29.99 in 10.0 mi North - - N/A   Unknown
1:35 AM 37.4 °F - 26.6 °F 65% 29.98 in 10.0 mi North - - N/A   Unknown
1:55 AM 39.2 °F 34.2 °F 28.4 °F 65% 29.98 in 10.0 mi South 6.9 mph - N/A   Unknown
2:15 AM 37.4 °F 32.1 °F 28.4 °F 70% 29.98 in 10.0 mi South 6.9 mph - N/A   Unknown
2:35 AM 37.4 °F 32.8 °F 30.2 °F 75% 29.97 in 10.0 mi South 5.8 mph - N/A   Unknown
2:55 AM 37.4 °F - 30.2 °F 75% 29.97 in 10.0 mi North - - N/A   Unknown
3:15 AM 37.4 °F - 32.0 °F 81% 29.96 in 10.0 mi North - - N/A   Unknown
3:35 AM 37.4 °F - 32.0 °F 81% 29.96 in 10.0 mi North - - N/A   Unknown
3:55 AM 39.2 °F 35.0 °F 32.0 °F 75% 29.95 in 10.0 mi SSE 5.8 mph - N/A   Unknown
4:15 AM 39.2 °F 35.9 °F 32.0 °F 75% 29.95 in 10.0 mi SSE 4.6 mph - N/A   Unknown
4:35 AM 37.4 °F 34.9 °F 32.0 °F 81% 29.95 in 10.0 mi South 3.5 mph - N/A   Unknown
4:55 AM 39.2 °F 37.0 °F 33.8 °F 81% 29.95 in 10.0 mi South 3.5 mph - N/A   Unknown
5:15 AM 39.2 °F 35.0 °F 35.6 °F 87% 29.94 in 10.0 mi South 5.8 mph - N/A   Unknown
5:35 AM 41.0 °F 38.0 °F 37.4 °F 87% 29.94 in 10.0 mi SSW 4.6 mph - N/A   Unknown
5:55 AM 41.0 °F 36.4 °F 37.4 °F 87% 29.94 in 10.0 mi South 6.9 mph - N/A   Unknown
6:15 AM 41.0 °F 36.4 °F 37.4 °F 87% 29.93 in 10.0 mi South 6.9 mph - N/A   Unknown
6:35 AM 41.0 °F 35.8 °F 37.4 °F 87% 29.93 in 10.0 mi South 8.1 mph - N/A   Unknown
6:55 AM 41.0 °F 35.2 °F 39.2 °F 93% 29.93 in 10.0 mi South 9.2 mph - N/A   Unknown
7:15 AM 41.0 °F 37.1 °F 39.2 °F 93% 29.93 in 10.0 mi SSW 5.8 mph - N/A   Unknown
7:35 AM 41.0 °F 39.0 °F 39.2 °F 93% 29.93 in 10.0 mi SSW 3.5 mph - N/A   Unknown
7:55 AM 41.0 °F 39.0 °F 39.2 °F 93% 29.93 in 10.0 mi South 3.5 mph - N/A   Unknown
8:15 AM 42.8 °F 38.6 °F 39.2 °F 87% 29.93 in 10.0 mi South 6.9 mph - N/A   Unknown
8:35 AM 44.6 °F 40.2 °F 41.0 °F 87% 29.93 in 10.0 mi South 8.1 mph - N/A   Unknown
8:55 AM 48.2 °F - 41.0 °F 76% 29.93 in 10.0 mi SSW 15.0 mph - N/A   Unknown
9:15 AM 50.0 °F - 42.8 °F 76% 29.94 in 10.0 mi SSW 12.7 mph - N/A   Unknown
9:35 AM 50.0 °F - 42.8 °F 76% 29.94 in 10.0 mi SSW 11.5 mph 19.6 mph N/A   Unknown
9:55 AM 53.6 °F - 42.8 °F 67% 29.94 in 10.0 mi SSW 12.7 mph - N/A   Unknown
10:15 AM 53.6 °F - 42.8 °F 67% 29.93 in 10.0 mi SSW 17.3 mph 21.9 mph N/A   Unknown
10:35 AM 55.4 °F - 42.8 °F 63% 29.92 in 10.0 mi SSW 15.0 mph 23.0 mph N/A   Unknown
10:55 AM 57.2 °F - 42.8 °F 59% 29.91 in 10.0 mi SSW 16.1 mph 25.3 mph N/A   Unknown
11:15 AM 59.0 °F - 42.8 °F 55% 29.90 in 10.0 mi South 15.0 mph 24.2 mph N/A   Unknown
11:35 AM 59.0 °F - 42.8 °F 55% 29.89 in 10.0 mi SSW 16.1 mph 21.9 mph N/A   Unknown
11:55 AM 60.8 °F - 42.8 °F 52% 29.87 in 10.0 mi South 12.7 mph - N/A   Unknown
12:15 PM 62.6 °F - 42.8 °F 48% 29.85 in 10.0 mi South 16.1 mph - N/A   Unknown
12:35 PM 64.4 °F - 42.8 °F 45% 29.83 in 10.0 mi SSW 11.5 mph - N/A   Unknown
12:55 PM 66.2 °F - 41.0 °F 40% 29.82 in 10.0 mi SSW 16.1 mph - N/A   Unknown
1:15 PM 66.2 °F - 41.0 °F 40% 29.80 in 10.0 mi SSW 13.8 mph 20.7 mph N/A   Unknown
1:35 PM 68.0 °F - 41.0 °F 37% 29.79 in 10.0 mi South 16.1 mph - N/A   Unknown
1:55 PM 68.0 °F - 41.0 °F 37% 29.78 in 10.0 mi SSW 17.3 mph 21.9 mph N/A   Unknown
2:15 PM 69.8 °F - 41.0 °F 35% 29.77 in 10.0 mi SSW 18.4 mph 21.9 mph N/A   Unknown
2:35 PM 69.8 °F - 41.0 °F 35% 29.76 in 10.0 mi South 12.7 mph - N/A   Unknown
2:55 PM 68.0 °F - 41.0 °F 37% 29.76 in 10.0 mi SSW 12.7 mph 18.4 mph N/A   Unknown
3:15 PM 71.6 °F - 41.0 °F 33% 29.75 in 10.0 mi SSW 15.0 mph 19.6 mph N/A   Unknown
3:35 PM 71.6 °F - 41.0 °F 33% 29.75 in 10.0 mi South 12.7 mph - N/A   Unknown
3:55 PM 69.8 °F - 41.0 °F 35% 29.75 in 10.0 mi South 16.1 mph 20.7 mph N/A   Unknown
4:15 PM 68.0 °F - 41.0 °F 37% 29.76 in 10.0 mi South 6.9 mph - N/A   Unknown
4:35 PM 69.8 °F - 42.8 °F 38% 29.75 in 10.0 mi South 5.8 mph - N/A   Unknown
4:55 PM 71.6 °F - 41.0 °F 33% 29.75 in 10.0 mi SW 11.5 mph 21.9 mph N/A   Unknown
5:15 PM 68.0 °F - 39.2 °F 35% 29.76 in 10.0 mi SSW 15.0 mph 23.0 mph N/A   Unknown
5:35 PM 66.2 °F - 41.0 °F 40% 29.76 in 10.0 mi South 8.1 mph - N/A   Unknown
5:55 PM 64.4 °F - 41.0 °F 42% 29.76 in 10.0 mi South 8.1 mph - N/A   Unknown
6:15 PM 62.6 °F - 42.8 °F 48% 29.75 in 10.0 mi South 10.4 mph - N/A   Unknown
6:35 PM 62.6 °F - 42.8 °F 48% 29.75 in 10.0 mi South 9.2 mph - N/A   Unknown
6:55 PM 62.6 °F - 42.8 °F 48% 29.76 in 10.0 mi South 6.9 mph - N/A   Unknown
7:15 PM 59.0 °F - 42.8 °F 55% 29.76 in 10.0 mi SSE 6.9 mph - N/A   Unknown
7:35 PM 59.0 °F - 42.8 °F 55% 29.76 in 10.0 mi SSE 6.9 mph - N/A   Unknown
7:55 PM 57.2 °F - 44.6 °F 63% 29.76 in 10.0 mi South 8.1 mph - N/A   Unknown
8:15 PM 57.2 °F - 44.6 °F 63% 29.76 in 10.0 mi South 6.9 mph - N/A   Unknown
8:35 PM 57.2 °F - 42.8 °F 59% 29.77 in 10.0 mi South 8.1 mph - N/A   Unknown
8:55 PM 57.2 °F - 44.6 °F 63% 29.77 in 10.0 mi South 9.2 mph - N/A   Unknown
9:15 PM 57.2 °F - 44.6 °F 63% 29.76 in 10.0 mi South 10.4 mph - N/A   Unknown
9:35 PM 57.2 °F - 44.6 °F 63% 29.76 in 10.0 mi South 10.4 mph - N/A   Unknown
9:55 PM 57.2 °F - 44.6 °F 63% 29.76 in 10.0 mi South 10.4 mph - N/A   Unknown
10:15 PM 55.4 °F - 44.6 °F 67% 29.76 in 10.0 mi South 9.2 mph - N/A   Unknown
10:35 PM 55.4 °F - 44.6 °F 67% 29.76 in 10.0 mi South 5.8 mph - N/A   Unknown
10:55 PM 53.6 °F - 44.6 °F 72% 29.79 in 10.0 mi North 13.8 mph - N/A   Unknown
11:15 PM 55.4 °F - 44.6 °F 67% 29.79 in 10.0 mi Calm Calm - N/A   Unknown
11:35 PM 50.0 °F - 42.8 °F 76% 29.79 in 10.0 mi NW 6.9 mph - N/A   Unknown
11:55 PM 50.0 °F - 35.6 °F 58% 29.81 in 10.0 mi North 15.0 mph 21.9 mph N/A   Unknown